Location: Unspecified
(0.0000°N, 0.0000°E)
Time: 10:39:53
(UTC+00:00)

Transit 4B - Pass Details

Date: 20 August 2024
Orbit: 947 x 1097 km, 32.4° (Epoch: 07 September)

Event Time Altitude Azimuth Distance (km) Brightness Sun altitude
Rises 20:02:43 0° 306° (NW) 3,657 12.5 -29.1°
Reaches altitude 10° 20:05:23 10° 308° (NW) 2,694 11.6 -29.8°
Enters shadow 20:11:12 72° 332° (NNW) 997 8.5 -31.2°
